Погода в Ноглики

Погода в Ноглики : погода сейчас, прогноз погоды и архив. Всё, что Вы хотите узнать о погоде в Ноглики!

Хотите узнать прогноз погоды в Ноглики? Тогда Вам сюда: Погода в Ноглики

Поиск расширенной информации на нашем сайте:

Другие новости

Новости СМИ2

Главная страница сайта

Новости сайта

02.10.2013

Напоминаем, что на нашем новом сайте вы можете получить высокодетализированные прогнозы погоды по пунктам России, СНГ и мира (включающие важные для авиации метеовеличины, такие как направление и скорость ветра, видимость, явления погоды, количество и форма облачности, нижняя и верхняя граница облачности), а также ознакомиться с разнообразными материалами по авиационной метеорологии и подборкой полезных ссылок на эту тему.

Сайт Метеоцентр.Азия посвящён разработке технологий оптимизации авиаметеорологического обслуживания, включая проектирование и перспективное создание нескольких автоматизированных авиаметеорологических систем:
- система выпуска высокодетальных прогностических карт явлений погоды для нижнего воздушного пространства по России и ближнему зарубежью;
- система верификации прогнозов TAF (выпускаемых синоптиками официальных АМСГ РФ и ближнего зарубежья) и AUTOTAF (выпускаемых сайтом Метеоцентр.Азия) - выявление ошибок, онлайн-сопоставление с фактической погодой METAR, автоматическое внесение коррективов в прогнозы при резком отклонении фактической погоды от прогноза, подсчёт оправдываемости прогнозов по элементам и в целом;
- система обработки, анализа и отображения авиаметеорологической информации для применения провайдерами метеорологической информации.

Рекомендуем: подбор тура пегас тур

Погода в Ноглики - сегодня

Время (UTC), дата Ветер
(°,м/с) 
Видим.   Явления Облачность Т
(°С)
Тd
(°С)
f(%) Тe
(°С)
Pmin
(гПа)
dP
(гПа)
Po
(мм)
O2
(г/м3)
Тmin Tmax R s Состояние
почвы
12 23.04.17 тихо () {02}  10 км    5/0 средняя 
[Ac trans]
-3.4 -4.5 92 -3  1022.4  0.7  763  312           
15 23.04.17 тихо () {02}  0200 м  переохл. туман  ?/?  
-4.8 -5.1 98 -5  1023.2  0.8  764  314           
18 23.04.17 тихо () -1{02}  0200 м  переохл. туман  ?/?  
-5.2 -5.5 98 -5  1023.5  0.3  764  314           
21 23.04.17 тихо () -1{01}  0200 м  переохл. туман  ?/?  
-5.7 -6.4 95 -6  1024.3  0.8  764  315  -6      59  равномерный
мокрый или
старый снег
100% 
00 24.04.17 060 (СВ) 2-3{03}  20000 м  {туман}  6/3 200 м верхняя 
[St|Ci fib]
-1.2 -2.5 91 -2  1024.1  -0.1  764  310           
03 24.04.17 070 (В) 2-4{05}  20000 м    8/3 200 м верхняя 
[St|Cs]
-0.8 -3 85 -2  1023.9  -0.2  764  309           
06 24.04.17 110 (В) 3-4{04}  20000 м    9/9 210 м 
[St]
-1 -2.9 87 -3  1023.4  -0.5  764  309           
09 24.04.17 070 (В) 1-4{04}  2000 м  слаб. снег  10/9 150 м средняя 
[Frnb|As op]
-2.6 -3.6 93 -2  1023.6  0.1  764  311    -0.8  0.0     
12 24.04.17 040 (СВ) 1-2{04}  10 км  {снег, туман}  10/10 150 м 
[St]
-3.4 -4.5 92 -3  1024.4  0.8  765  312           
15 24.04.17 тихо () -1{02}  2000 м  слаб. снег  10/10 120 м 
[Frnb|Ns]
-4 -5.2 91 -4  1024.1  -0.3  764  313           
18 24.04.17 тихо () -1{01}  1000 м  слаб. снег  10/10 100 м 
[Frnb|Ns]
-4.2 -5.4 91 -4  1023.9  -0.2  764  313           
21 24.04.17 тихо () -1{01}  0500 м  туман{снег}  ?/?  
-4.1 -4 100 -4  1024.2  0.3  764  313  -4.4    0.2  58  равномерный
сухой снег
100% 
00 25.04.17 080 (В) 2-3{03}  10 км  {снег, туман}  10/10 120 м 
[St]
-1.8 -2.9 92 -3  1023.7  -0.4  764  310           
03 25.04.17 120 (ЮВ) 3-5{05}  20000 м    4/1 300 м верхняя 
[St|Ci fib]
-1.3 -4.5 79 -3  1022.4  -1.3  763  309           
06 25.04.17 130 (ЮВ) 4-6{06}  20000 м    5/3 200 м верхняя 
[St|Ci fib]
-1.6 -4.6 80 -4  1020.9  -1.5  762  309           
09 25.04.17 120 (ЮВ) 4-7{07}  20000 м    6/6 150 м 
[St]
-2.8 -3.5 95 -6  1019.6  -1.4  761  310    -1.3       
12 25.04.17 100 (В) 4-7{07}  1000 м  дымка  10/10 100 м 
[St]
-2.7 -3.1 97 -6  1018.3  -1.3  760  310           
15 25.04.17 160 (Ю) 5-8{09}  1000 м  слаб. снег  10/10 150 м 
[Frnb|Ns]
-3 -3.1 99 -7  1016.2  -2.1  758  309           
18 25.04.17 130 (ЮВ) 3-5{09}  1000 м  дымка{снег}  10/10 100 м 
[St]
-2.2 -1.3 100 -4  1013.9  -2.2  757  308           
21 25.04.17 140 (ЮВ) 4-7{07}  1000 м  в посл. час туман  10/10 150 м 
[St]
-1.8 -2.9 92 -5  1011.8  -2  755  307  -3    0.4  57  равномерный
сухой снег
100% 
00 26.04.17 120 (ЮВ) 5-8{08}  20000 м  {туман}  10/10 210 м 
[St]
-1.4 -2.5 92 -5  1010.9  -0.9  755  306           
03 26.04.17 120 (ЮВ) 5-8{08}  20000 м    10/10 240 м 
[St]
-0.9 -2.2 91 -4  1009.7  -1.2  754  305           
06 26.04.17 130 (ЮВ) 3-6{08}  20000 м    10/10 210 м 
[St]
-1 -2.5 90 -3  1008.5  -1.2  753  305           
09 26.04.17 100 (В) 3-5{06}  20000 м    10/10 240 м 
[St]
-1.8 -2.9 92 -4  1007.9  -0.6  752  305    -0.8       
12 26.04.17 100 (В) 2-3{05}  10 км  слаб. снег  10/10 210 м 
[Frnb|Ns]
-2.4 -3.6 91 -3  1007.7  -0.3  752  306           
Время (UTC), дата Ветер
(°,м/с) 
Видим.   Явления Облачность Т
(°С)
Тd
(°С)
f(%) Тe
(°С)
Pmin
(гПа)
dP
(гПа)
Po
(мм)
O2
(г/м3)
Тmin Tmax R s Состояние
почвы

Для получения пояснительной информации подведите курсор к названию столбца.

ПОГОДА в Ноглики - архив

Всё, что Вы хотите узнать о погоде в Ноглики - удобно и подробно!

Выберите нужную дату (начиная с 1 января 2015* года) и нажмите кнопку "Найти".
Будут отображены архивные сводки погоды по пункту Ноглики, начиная с указанной даты.


Отображать данные в формате CSV (для использования в таблицах Excel)


Внимание! Наш архив погоды предназначен исключительно для личного некоммерческого использования в познавательных целях. Если Вам необходимы официальные справки о состоянии погоды (для производственных, юридических, коммерческих и т.п. целей), обращайтесь в органы Росгидромета.

*Примечание: данная дата относится к архиву по метеостанциям СССР (Россия, СНГ, Балтия).
Архив по метеостанциям Зарубежной Европы и Азии (кроме Китая) хранится 10 дней, по другим регионам земного шара (Китай, Африка, Америка, Австралия, Океания) - 1 день.

Ноглики - район местоположения метеостанции


Название, широта, долгота, высота метеостанции:
Ноглики 51.9°ш. 143.1°д. 34 м над ур. моря [Российская Федерация]

Дополнительная информация

В oтличие oт бoльшинства пoгoдных сайтoв мы публикуем пoдрoбную метеoинфoрмацию в детальнoм прoфессиoнальнoм фoрмате.

Характеристики температуры и влажнoсти вoздуха измеряются на высoте 2 м в тени вдали oт зданий и деревьев.
Скoрoсть ветра измеряется на высoте 10 м (на урoвне рoста челoвека скoрoсть ветра ниже в 1.5-2 раза). Если метеoстанция нахoдится в гoрoде или в лесу, тo скoрoсть ветра занижена на 2-4 м/с пo сравнению с oткрытым местoм. Скoрoсть ветра над акватoриями крупных рек и oзёр, а также на вершинах хoлмoв на 2-5 м/с выше, чем в oбычных услoвиях.
Атмoсфернoе давление в разных тoчках местнoсти мoжет значительнo oтличаться oт давления на метеoстанции, в зависимoсти oт услoвий рельефа (при пoдъёме на 10 м давление пoнижается примернo на 1 мм рт.ст.).